EHI
0 0 0 0 0 0 0 0 0 0 0 0 0 0 0 0 0 0 0 0 0 0 0 0 0 0 0 0 0 0 0 0 0 0 0 0 0 0 0 0 0 0 0 0
0 0 0 0 0 0 0 0 0 0 0 0 0 0 0 0 0 0 0 0 0 0 0 0 0 0 0 0 0 0 0 0 0 0 0 0 0 0 0 0 0 0 0 0
0 0 0 0 0 0 0 0 0 0 0 0 0 0 0 0 0 0 0 0 0 0 0 0 0 0 0 0 0 0 0 0 0 0 0 0 0 0 0 0 0 0 0 0
0 0 0 0 0 0 0 0 0 0 0 0 0 0 0 0 0 0 0 0 0 0 0 0 0 0 0 0 0 0 0 0 0 0 0 0 0 0 0 0 0 0 0 0
0 0 0 0 0 0 0 0 0 0 0 0 0 0 0 0 0 0 0 0 0 0 0 0 0 0 0 0 0 0 0 0 0 0 0 0 0 0 0 0 0 0 0 0
0 0 0 0 0 0 0 0 0 0 0 0 0 0 0 0 0 0 0 0 0 0 0 0 0 0 0 0 0 0 0 0 0 0 0 0 0 0 0 0 0 0 0 0
0 0 0 0 0 0 0 0 0 0 0 0 0 0 0 0 0 0 0 0 0 0 0 0 0 0 0 0 0 0 0 0 0 0 0 0 0 0 0 0 0 0 0 0
0 0 0 0 0 0 0 0 0 0 0 0 0 0 0 0 0 0 0 0 0 0 0 0 0 0 0 0 0 0 0 0 0 0 0 0 0 0 0 0 0 0 0 0
0 0 0 0 0 0 0 0 0 0 0 0 0 0 0 0 0 0 0 0 0 0 0 0 0 0 0 0 0 0 0 0 0 0 0 0 0 0 0 0 0 0 0 0
0 0 0 0 0 0 0 0 0 0 0 0 0 0 0 0 0 0 0 0 0 0 0 0 0 0 0 0 0 0 0 0 0 0 0 0 0 0 0 0 0 0 0 0
0 0 0 0 0 0 0 0 0 0 0 0 0 0 0 0 0 0 0 0 0 0 0 0 0 0 0 0 0 0 0 0 0 0 0 0 0 0 0 0 0 0 0 0
0 0 0 0 0 0 0 0 0 0 0 0 0 0 0 0 0 0 0 0 0 0 0 0 0 0 0 0 0 0 0 0 0 0 0 0 0 0 0 0 0 0 0 0
0 0 0 0 0 0 0 0 0 0 0 0 0 0 0 0 0 0 0 0 0 0 0 0 0 0 0 0 0 0 0 0 0 0 0 0 0 0 0 0 0 0 0 0
0 0 0 0 0 0 0 0 0 0 0 0 0 0 0 0 0 0 0 0 0 0 0 0 0 0 0 0 0 0 0 0 0 0 0 0 0 0 0 0 0 0 0 0
0 0 0 0 0 0 0 0 0 0 0 0 0 0 0 0 0 0 0 0 0 0 0 0 0 0 0 0 0 0 0 0 0 0 0 0 0 0 0 0 0 0 0 0
0 0 0 0 0 0 0 0 0 0 0 0 0 0 0 0 0 0 0 0 0 0 0 0 0 0 0 0 0 0 0 0 0 0 0 0 0 0 0 0 0 0 0 0
0 0 0 0 0 0 0 0 0 0 0 0 0 0 0 0 0 0 0 0 0 0 0 0 0 0 0 0 0 0 0 0 0 0 0 0 0 0 0 0 0 0 0 0
0 0 0 0 0 0 0 0 0 0 0 0 0 0 0 0 0 0 0 0 0 0 0 0 0 0 0 0 0 0 0 0 0 0 0 0 0 0 0 0 0 0 0 0
0 0 0 0 0 0 0 0 0 0 0 0 0 0 0 0 0 0 0 0 0 0 0 0 0 0 0 0 0 0 0 0 0 0 0 0 0 0 0 0 0 0 0 0
0 0 0 0 0 0 0 0 0 0 0 0 0 0 0 0 0 0 0 0 0 0 0 0 0 0 0 0 0 0 0 0 0 0 0 0 0 0 0 0 0 0 0 0
0 0 0 0 0 0 0 0 0 0 0 0 0 0 0 0 0 0 0 0 0 0 0 0 0 0 0 0 0 0 0 0 0 0 0 0 0 0 0 0 0 0 0 0
0 0 0 0 0 0 0 0 0 0 0 0 0 0 0 0 0 0 0 0 0 0 0 0 0 0 0 0 0 0 0 0 0 0 0 0 0 0 0 0 0 0 0 0
0 0 0 0 0 0 0 0 0 0 0 0 0 0 0 0 0 0 0 0 0 0 0 0 0 0 0 0 0 0 0 0 0 0 0 0 0 0 0 0 0 0 0 0
0 0 0 0 0 0 0 0 0 0 0 0 0 0 0 0 0 0 0 0 0 0 0 0 0 0 0 0 0 0 0 0 0 0 0 0 0 0 0 0 0 0 0 0
0 0 0 0 0 0 0 0 0 0 0 0 0 0 0 0 0 0 0 0 0 0 0 0 0 0 0 0 0 0 0 0 0 0 0 0 0 0 0 0 0 0 0 0
0 0 0 0 0 0 0 0 0 0 0 0 0 0 0 0 0 0 0 0 0 0 0 0 0 0 0 0 0 0 0 0 0 0 0 0 0 0 0 0 0 0 0 0
0 0 0 0 0 0 0 0 0 0 0 0 0 0 0 0 0 0 0 0 0 0 0 0 0 0 0 0 0 0 0 0 0 0 0 0 0 0 0 0 0 0 0 0
Wind_Speed
6 6 4 7 8 6 8 8 9 9 8 10 7 6 6 6 5 6 6 7 7 7 7 7 7 7 6 6 6 5 4 5 6 6 5 5 5 5 5 5 6 5 5 6
5 4 5 9 10 9 9 8 10 9 11 7 6 4 4 5 6 6 7 8 8 8 8 7 8 8 8 8 7 6 5 5 6 5 5 5 5 5 5 5 5 5 6 6
4 4 4 8 8 8 5 5 6 9 9 5 5 5 4 5 5 6 7 8 9 8 8 8 7 7 7 7 7 6 5 5 5 5 5 5 5 5 5 5 5 5 6 6
2 3 6 7 2 3 4 4 4 5 5 5 5 6 5 4 3 5 7 8 9 8 8 8 7 7 7 7 6 6 5 5 5 5 5 5 4 5 5 4 4 5 5 5
1 3 9 7 2 2 3 5 3 5 6 5 4 4 3 2 3 5 6 7 7 7 8 8 7 7 7 7 6 6 6 6 6 5 5 5 5 4 4 4 4 5 5 5
3 3 7 6 2 1 1 5 3 3 5 4 3 3 4 4 6 7 7 6 7 7 7 7 7 7 7 7 7 7 8 7 6 6 5 5 5 5 4 4 4 4 5 5
4 5 9 6 2 1 2 5 3 2 3 3 3 5 6 6 6 6 7 7 7 7 6 7 7 7 7 7 7 8 8 8 6 6 5 5 5 4 3 3 4 4 4 4
4 5 9 2 2 4 5 3 2 3 3 4 5 6 6 6 7 7 7 7 7 6 7 7 6 6 7 8 8 8 8 8 7 6 4 4 4 4 3 3 3 4 4 3
8 8 4 3 4 4 2 3 3 3 4 4 5 5 6 6 6 6 7 7 7 6 8 7 6 6 7 9 8 8 8 8 7 6 4 4 4 4 3 2 2 2 2 2
5 7 5 4 4 3 3 4 4 4 5 4 4 5 6 6 6 6 6 6 6 6 7 8 7 6 7 8 8 7 7 7 7 5 4 4 3 3 2 2 2 2 2 2
5 6 5 4 4 4 4 4 4 4 4 4 4 5 5 5 6 6 6 6 5 6 7 8 8 8 8 7 7 7 7 7 6 5 4 4 4 3 3 2 3 3 2 2
6 5 4 5 4 3 4 5 5 4 4 4 4 5 5 5 5 5 6 6 6 6 7 8 8 8 7 7 6 6 7 6 5 4 4 3 3 4 5 5 7 6 5 4
4 3 4 5 4 3 4 5 5 5 5 5 4 4 4 5 5 5 5 6 6 7 7 7 8 8 7 7 6 6 6 6 5 4 4 4 3 3 3 5 6 6 6 7
3 2 3 3 4 5 5 5 4 4 4 4 4 4 3 4 5 5 5 6 6 6 6 7 7 8 8 7 6 6 5 6 5 4 4 4 3 3 2 2 3 4 5 8
3 3 5 5 4 4 3 3 3 4 4 4 3 3 4 4 6 6 6 5 6 6 6 6 7 8 7 6 6 6 5 4 4 3 3 3 3 3 2 2 2 3 3 5
4 4 3 3 4 4 3 3 3 5 5 5 5 5 5 5 5 6 5 5 5 6 7 6 7 8 7 6 6 5 4 7 6 3 3 3 3 3 3 3 3 3 3 4
3 3 3 4 5 5 4 4 4 5 5 5 6 6 5 5 5 5 5 5 5 6 6 6 7 7 6 5 4 4 4 5 6 4 3 2 3 3 3 3 3 3 3 5
4 4 4 4 4 5 5 4 4 4 5 5 5 5 4 4 5 6 6 6 5 6 6 6 6 6 5 5 3 3 3 3 3 3 3 2 2 2 2 3 3 3 3 4
3 3 4 3 3 3 4 4 4 4 5 4 4 4 4 5 5 5 5 5 5 6 6 6 9 6 5 5 4 2 2 3 3 3 3 4 4 3 3 3 3 3 3 3
3 3 3 3 3 3 4 4 4 4 4 4 4 4 4 5 4 5 4 4 4 4 6 6 6 4 4 4 5 2 2 2 2 2 2 2 2 3 3 3 3 3 3 3
3 3 4 4 4 4 4 4 4 4 5 4 4 4 5 5 4 4 4 5 5 5 5 7 4 4 3 4 4 2 1 1 2 2 2 2 2 2 2 3 3 3 3 3
3 3 4 4 4 5 4 4 4 4 4 4 4 4 4 4 4 4 4 4 5 7 4 3 3 4 5 4 2 2 1 1 2 2 2 2 2 2 2 3 3 3 3 2
3 3 4 4 4 5 5 4 4 3 4 4 4 4 4 4 3 3 4 4 3 6 4 3 5 7 6 3 2 2 2 2 2 2 2 2 2 2 2 3 3 3 3 3
3 3 4 4 3 3 4 5 4 3 3 4 4 4 3 3 3 2 3 6 7 6 3 5 7 7 5 2 2 2 2 2 2 2 2 2 2 2 2 2 3 3 3 3
3 3 3 3 3 3 4 4 4 4 3 3 3 3 2 2 3 3 3 4 6 5 3 5 7 6 3 2 2 2 2 2 2 2 2 2 2 2 2 3 3 3 3 3
3 3 3 3 3 3 3 3 3 3 3 3 3 3 2 2 2 3 3 3 4 5 3 3 3 4 2 2 2 2 2 3 3 2 2 2 3 3 3 3 4 3 3 3
3 3 2 3 3 3 3 3 3 4 3 3 4 3 3 3 3 3 3 3 3 3 3 2 2 2 2 2 2 2 2 2 2 2 2 3 3 3 3 3 3 3 3 3
Wind_Direction
257 268 255 252 259 237 216 219 226 252 257 274 287 286 296 309 322 328 327 328 325 323 319 320 321 321 319 308 304 300 289 276 271 268 263 259 249 243 241 238 241 239 241 243
279 268 264 271 264 248 242 238 244 265 273 276 285 297 311 317 321 324 323 322 321 319 319 320 320 317 316 310 304 301 287 281 281 275 269 262 253 246 247 244 241 239 240 241
274 300 317 274 249 226 225 222 215 242 261 303 307 303 294 301 312 316 320 321 320 317 313 311 310 310 307 305 306 303 292 289 288 280 275 267 260 252 249 248 243 241 244 241
281 350 251 247 249 208 215 248 234 255 279 292 284 288 280 280 298 313 318 319 319 316 313 310 311 313 313 315 313 305 298 296 294 291 282 277 268 259 253 250 245 243 246 243
203 261 275 288 271 187 212 273 243 253 282 296 313 320 296 292 315 304 306 307 305 306 306 308 313 316 321 320 319 315 305 300 300 295 286 283 272 267 263 255 256 252 251 247
184 229 253 262 277 258 137 279 272 250 280 298 345 324 288 316 321 315 313 312 311 311 312 314 316 320 323 321 321 318 311 304 299 294 288 283 277 273 265 254 257 260 259 252
205 238 264 264 271 101 175 264 295 262 272 273 244 243 278 303 306 307 310 311 315 315 313 312 317 321 319 317 313 308 308 308 305 298 292 288 287 285 268 262 263 263 262 261
183 219 255 242 143 190 232 276 280 274 266 259 266 279 291 298 302 310 314 317 320 320 317 317 320 320 318 315 312 315 316 314 309 304 302 305 300 297 285 263 253 255 258 266
199 220 248 197 214 241 257 267 268 263 268 259 272 284 294 298 302 307 309 314 318 317 316 319 322 321 315 314 319 321 320 316 313 311 310 307 300 298 299 290 274 271 254 252
251 263 260 256 258 274 259 251 266 268 271 263 267 281 292 298 304 308 310 312 316 320 320 320 322 320 313 314 318 320 318 316 316 316 316 319 313 306 303 297 291 292 291 282
254 275 301 285 246 253 270 281 290 288 266 254 262 277 281 292 298 302 307 311 314 315 314 314 318 317 318 321 324 322 320 319 321 321 320 320 319 316 311 305 300 301 288 281
234 237 224 264 272 275 277 280 277 275 284 277 257 267 282 289 291 297 304 309 314 315 315 315 317 317 319 322 323 320 321 324 324 326 324 321 319 329 339 336 337 335 335 329
236 250 243 267 285 285 281 282 278 266 263 277 281 271 278 286 294 298 303 308 308 310 311 313 317 318 321 323 324 323 320 318 318 323 322 318 316 324 336 346 347 348 348 348
256 266 278 276 282 293 292 294 293 291 281 274 278 287 289 293 300 303 303 302 303 307 311 314 317 318 322 323 324 323 319 317 320 317 317 317 320 324 329 335 343 348 351 355
267 248 252 273 286 297 302 310 315 309 309 308 300 294 294 296 299 299 302 306 310 312 314 318 319 318 323 325 326 324 323 322 318 316 319 325 330 335 338 336 347 348 351 358
293 292 283 283 289 297 301 296 292 296 304 306 306 301 293 288 292 298 304 311 312 310 312 315 313 315 320 323 325 325 324 329 334 329 333 340 344 348 349 352 0 1 356 354
277 287 294 296 294 295 289 280 276 285 295 296 297 299 302 305 308 310 310 308 301 297 302 306 307 312 317 322 321 321 325 329 339 343 345 346 348 348 349 354 358 357 353 354
248 254 256 257 267 283 294 295 289 289 287 287 295 299 301 301 299 302 307 312 313 312 309 307 308 314 319 322 318 317 323 330 338 344 344 348 354 355 355 357 358 355 351 352
284 277 278 278 274 274 283 288 289 288 290 292 292 289 286 285 288 294 303 312 316 315 314 313 319 325 321 321 330 323 334 341 344 347 351 351 358 2 360 358 353 351 349 350
305 305 303 303 302 290 288 290 290 291 291 289 290 291 293 293 293 296 298 292 284 284 297 310 315 314 315 318 331 334 343 345 345 347 351 355 352 351 349 347 344 344 348 348
309 313 313 311 309 305 296 294 291 292 297 295 287 285 288 292 292 292 298 301 302 303 306 315 320 313 314 324 334 339 342 344 344 340 337 338 341 341 341 341 339 337 339 339
306 308 308 307 307 307 306 304 295 294 299 300 297 293 296 299 302 296 279 276 296 315 320 312 314 321 331 339 343 344 340 336 330 328 327 327 328 327 328 331 328 326 327 328
297 298 302 304 302 302 310 310 302 297 296 297 296 293 289 287 290 293 301 302 307 319 327 318 323 329 339 353 356 348 339 331 324 320 315 311 309 310 312 316 313 314 316 318
301 306 306 308 311 315 317 316 313 306 298 295 291 288 288 296 298 281 280 305 321 325 328 325 333 338 347 355 350 345 335 325 319 314 313 314 313 312 309 308 308 310 309 308
304 304 309 317 318 310 306 314 320 320 318 311 308 306 299 284 281 297 305 307 317 329 329 328 337 345 352 345 341 329 318 310 309 312 310 309 307 305 303 301 299 299 299 298
303 300 296 296 298 304 310 315 315 317 319 318 319 320 320 313 302 301 306 310 315 328 328 322 329 337 340 335 327 321 317 316 319 317 310 305 302 300 298 298 298 294 291 290
310 309 312 316 315 313 312 311 309 311 313 311 313 321 324 324 323 321 319 323 327 327 323 324 328 329 326 324 321 320 319 316 312 309 307 303 299 295 293 292 293 297 299 295